Weather History for Lake Hood, AK

Change the Weather History Date:

Monday, March 25, 2013

  Actual Average Record
Temperature  
Mean Temperature 17 °F -  
Max Temperature 24 °F 32 °F 43 °F (2008)
Min Temperature 10 °F 19 °F 1 °F (2007)
Degree Days  
Heating Degree Days 48    
Moisture  
Dew Point 13 °F    
Average Humidity 80    
Maximum Humidity 93    
Minimum Humidity 49    
Precipitation  
Precipitation 0.12 in - - ()
Sea Level Pressure  
Sea Level Pressure 29.50 in    
Wind  
Wind Speed 5 mph (NNE)    
Max Wind Speed 16 mph    
Max Gust Speed 22 mph    
Visibility 2 miles    
Events Fog , Snow    
Averages and records for this station are not official NWS values.
T = Trace of Precipitation, MM = Missing Value Source: NWS Daily Summary

Daily Weather History Graph

Daily Weather History Graph

Search for Another Location

Airport:

Trip Planner

Search our weather history database for the weather conditions in past years. The results will help you decide how hot, cold, wet, or windy it might be!

Date:

Astronomy

Mar. 25, 2013 Rise Set
Actual Time 7:43 AM AKDT 8:28 PM AKDT
Civil Twilight 7:00 AM AKDT 9:12 PM AKDT
Nautical Twilight 6:06 AM AKDT 10:06 PM AKDT
Astronomical Twilight 5:06 AM AKDT 11:07 PM AKDT
Moon 7:00 PM AKDT (3/25) 6:52 AM AKDT (3/25)
Length of Visible Light 14h 12m
Length of Day
12h 45m
Waxing Gibbous, 97% of the Moon is Illuminated
Mar 25
Waxing Gibbous
Mar 27
Full
Apr 2
Last Quarter
Apr 10
New
Apr 18
First Quarter

Hourly Weather History & Observations

Time (AKDT) Temp. Windchill Dew Point Humidity Pressure Visibility Wind Dir Wind Speed Gust Speed Precip Events Conditions
12:07 AM 24.8 °F - 21.2 °F 86% 29.57 in 1.0 mi Calm Calm - 0.00 in Snow Light Snow
12:17 AM 24.8 °F - 21.2 °F 86% 29.57 in 1.0 mi Calm Calm - 0.00 in Snow Light Snow
12:50 AM 24.8 °F - 21.2 °F 86% 29.56 in 2.0 mi Calm Calm - 0.00 in Snow Light Snow
12:53 AM 24.1 °F - 21.0 °F 88% 29.57 in 2.0 mi Calm Calm - 0.00 in Snow Light Snow
1:13 AM 24.8 °F - 21.2 °F 86% 29.55 in 1.0 mi Calm Calm - 0.00 in Snow Light Snow
1:53 AM 24.1 °F 19.7 °F 21.0 °F 88% 29.55 in 1.5 mi South 3.5 mph - 0.00 in Snow Light Snow
2:18 AM 24.8 °F 20.5 °F 21.2 °F 86% 29.54 in 1.0 mi SSE 3.5 mph - 0.00 in Snow Light Snow
2:46 AM 24.8 °F - 21.2 °F 86% 29.53 in 1.8 mi Calm Calm - 0.00 in Snow Light Snow
2:53 AM 24.1 °F 19.7 °F 21.0 °F 88% 29.53 in 1.5 mi NNE 3.5 mph - 0.00 in Snow Light Snow
3:02 AM 23.0 °F 17.0 °F 19.4 °F 86% 29.52 in 1.2 mi NNE 4.6 mph - 0.00 in Snow Light Snow
3:13 AM 23.0 °F - 19.4 °F 86% 29.52 in 1.2 mi Calm Calm - 0.00 in Snow Light Snow
4:04 AM 23.0 °F - 19.4 °F 86% 29.50 in 1.0 mi Calm Calm - 0.00 in Snow Light Snow
4:34 AM 23.0 °F 14.7 °F 19.4 °F 86% 29.50 in 0.8 mi East 6.9 mph - 0.00 in Snow Light Snow
4:53 AM 23.0 °F 15.8 °F 19.9 °F 88% 29.49 in 0.8 mi East 5.8 mph - 0.01 in Snow Light Snow
5:02 AM 23.0 °F 14.7 °F 19.4 °F 86% 29.49 in 0.5 mi East 6.9 mph - 0.01 in Fog , Snow Snow
5:53 AM 21.9 °F 17.2 °F 19.0 °F 89% 29.48 in 0.8 mi ENE 3.5 mph - 0.03 in Snow Light Snow
6:28 AM 21.2 °F - 19.4 °F 93% 29.46 in 1.0 mi Calm Calm - 0.02 in Snow Light Snow
6:53 AM 21.9 °F 17.2 °F 19.0 °F 89% 29.47 in 0.8 mi NNE 3.5 mph - 0.02 in Snow Light Snow
7:29 AM 21.2 °F 11.7 °F 17.6 °F 86% 29.45 in 0.8 mi North 8.1 mph - 0.01 in Snow Light Snow
7:42 AM 19.4 °F 9.5 °F 17.6 °F 93% 29.45 in 0.8 mi North 8.1 mph - 0.01 in Snow Light Snow
7:53 AM 19.9 °F 11.1 °F 17.1 °F 89% 29.45 in 0.5 mi NNE 6.9 mph - 0.01 in Fog , Snow Snow
8:11 AM 19.4 °F 8.6 °F 15.8 °F 86% 29.44 in 0.5 mi NE 9.2 mph - 0.00 in Fog , Snow Snow
8:17 AM 19.4 °F 9.5 °F 15.8 °F 86% 29.44 in 0.8 mi NE 8.1 mph - 0.00 in Snow Light Snow
8:26 AM 19.4 °F 8.6 °F 15.8 °F 86% 29.44 in 1.0 mi NNE 9.2 mph - 0.00 in Snow Light Snow
8:40 AM 17.6 °F 6.4 °F 14.0 °F 86% 29.44 in 0.5 mi North 9.2 mph - 0.00 in Fog , Snow Snow
8:53 AM 18.0 °F 5.4 °F 12.9 °F 81% 29.44 in 0.5 mi NNE 11.5 mph - 0.00 in Snow Snow
9:13 AM 17.6 °F 5.7 °F 14.0 °F 86% 29.43 in 0.2 mi North 10.4 mph - 0.00 in Fog , Snow Snow
9:23 AM 17.6 °F 7.3 °F 14.0 °F 86% 29.43 in 0.5 mi NNE 8.1 mph - 0.00 in Fog , Snow Snow
9:53 AM 18.0 °F 7.7 °F 14.0 °F 84% 29.44 in 0.5 mi NNE 8.1 mph - 0.01 in Fog , Snow Snow
10:49 AM 17.6 °F 7.3 °F 12.2 °F 79% 29.43 in 0.8 mi NNE 8.1 mph - 0.00 in Snow Light Snow
10:53 AM 18.0 °F 8.7 °F 12.9 °F 81% 29.44 in 0.8 mi NNE 6.9 mph - 0.00 in Snow Light Snow
11:04 AM 17.6 °F 9.3 °F 14.0 °F 86% 29.43 in 0.5 mi NNE 5.8 mph - 0.00 in Fog , Snow Snow
11:14 AM 17.6 °F 6.4 °F 12.2 °F 79% 29.43 in 0.2 mi NNE 9.2 mph - 0.00 in Snow Heavy Snow
11:22 AM 17.6 °F 7.3 °F 12.2 °F 79% 29.44 in 0.2 mi NE 8.1 mph - 0.00 in Snow Heavy Snow
11:45 AM 17.6 °F 8.2 °F 12.2 °F 79% 29.44 in 0.5 mi NE 6.9 mph - 0.01 in Snow Snow
11:53 AM 18.0 °F 9.8 °F 12.9 °F 81% 29.45 in 0.5 mi North 5.8 mph - 0.01 in Snow Snow
12:02 PM 17.6 °F 8.2 °F 12.2 °F 79% 29.44 in 0.2 mi North 6.9 mph - 0.00 in Fog , Snow Snow
12:17 PM 17.6 °F 9.3 °F 12.2 °F 79% 29.44 in 0.5 mi North 5.8 mph - 0.01 in Snow Snow
12:53 PM 18.0 °F 7.7 °F 14.0 °F 84% 29.45 in 0.8 mi NNW 8.1 mph - 0.01 in Snow Light Snow
1:06 PM 17.6 °F 6.4 °F 12.2 °F 79% 29.45 in 1.0 mi North 9.2 mph - 0.00 in Snow Light Snow
1:29 PM 17.6 °F 5.0 °F 12.2 °F 79% 29.45 in 0.5 mi NNW 11.5 mph - 0.00 in Fog , Snow Snow
1:41 PM 17.6 °F 6.4 °F 12.2 °F 79% 29.45 in 0.5 mi NNW 9.2 mph - 0.01 in Fog , Snow Snow
1:53 PM 17.1 °F 5.8 °F 12.9 °F 84% 29.46 in 0.5 mi NNW 9.2 mph - 0.01 in Fog , Snow Snow
2:13 PM 17.6 °F 5.7 °F 12.2 °F 79% 29.46 in 0.5 mi NNW 10.4 mph - 0.00 in Snow Snow
2:25 PM 17.6 °F 8.2 °F 12.2 °F 79% 29.47 in 0.8 mi NNW 6.9 mph - 0.00 in Snow Light Snow
2:37 PM 17.6 °F 10.7 °F 12.2 °F 79% 29.47 in 1.0 mi North 4.6 mph - 0.00 in Snow Light Snow
2:53 PM 18.0 °F 9.8 °F 12.9 °F 81% 29.47 in 1.2 mi NNW 5.8 mph - 0.00 in Snow Light Snow
3:27 PM 19.4 °F - 12.2 °F 74% 29.47 in 3.0 mi Calm Calm - 0.00 in Snow Light Snow
3:39 PM 19.4 °F 14.3 °F 12.2 °F 74% 29.48 in 8.0 mi North 3.5 mph - 0.00 in   Overcast
3:53 PM 19.0 °F 12.3 °F 12.0 °F 74% 29.49 in 4.0 mi North 4.6 mph - 0.00 in   Haze
4:11 PM 19.4 °F 11.5 °F 12.2 °F 74% 29.49 in 2.0 mi NNE 5.8 mph - 0.00 in Snow Light Snow
4:19 PM 17.6 °F 5.7 °F 12.2 °F 79% 29.49 in 1.2 mi North 10.4 mph - 0.00 in Snow Light Snow
4:53 PM 18.0 °F 7.7 °F 12.0 °F 78% 29.50 in 2.5 mi North 8.1 mph - 0.00 in Snow Light Snow
5:25 PM 17.6 °F 4.3 °F 10.4 °F 73% 29.51 in 1.0 mi North 12.7 mph - 0.00 in Snow Light Snow
5:33 PM 15.8 °F 2.7 °F 10.4 °F 79% 29.51 in 0.5 mi North 11.5 mph - 0.00 in Snow Snow
5:46 PM 15.8 °F 4.2 °F 10.4 °F 79% 29.52 in 1.2 mi North 9.2 mph - 0.00 in Snow Light Snow
5:53 PM 16.0 °F 2.9 °F 10.0 °F 77% 29.52 in 1.0 mi North 11.5 mph - 0.00 in Snow Light Snow
6:03 PM 15.8 °F 2.7 °F 10.4 °F 79% 29.52 in 0.8 mi NNW 11.5 mph - 0.01 in Snow Light Snow
6:14 PM 15.8 °F 0.9 °F 8.6 °F 73% 29.53 in 1.2 mi North 15.0 mph - 0.01 in Snow Light Snow
6:24 PM 15.8 °F 2.7 °F 8.6 °F 73% 29.53 in 3.0 mi North 11.5 mph - 0.01 in Snow Light Snow
6:53 PM 14.0 °F -2.0 °F 7.0 °F 74% 29.55 in 2.5 mi North 16.1 mph - 0.01 in Snow Light Snow
7:01 PM 14.0 °F -1.4 °F 6.8 °F 73% 29.55 in 1.2 mi North 15.0 mph 21.9 mph 0.00 in Snow Light Snow
7:53 PM 12.9 °F -0.2 °F 6.1 °F 74% 29.58 in 1.8 mi North 10.4 mph - 0.00 in Snow Light Snow
8:01 PM 12.2 °F -3.1 °F 5.0 °F 73% 29.58 in 2.5 mi North 13.8 mph - 0.00 in Snow Light Snow
8:08 PM 12.2 °F -2.5 °F 3.2 °F 67% 29.58 in 4.0 mi North 12.7 mph - 0.00 in Snow Light Snow
8:15 PM 12.2 °F 0.7 °F 3.2 °F 67% 29.58 in 6.0 mi North 8.1 mph - 0.00 in   Overcast
8:53 PM 12.9 °F -0.2 °F -0.0 °F 56% 29.61 in 10.0 mi North 10.4 mph - 0.00 in   Overcast
9:53 PM 12.0 °F 2.7 °F -0.0 °F 59% 29.65 in 10.0 mi NNE 5.8 mph - N/A   Overcast
10:53 PM 10.0 °F -4.5 °F -4.0 °F 53% 29.68 in 10.0 mi NNE 11.5 mph - N/A   Overcast
11:53 PM 10.9 °F -1.8 °F -5.1 °F 49% 29.72 in 10.0 mi NE 9.2 mph - N/A   Overcast